Time,TemperatureF,DewpointF,PressureIn,WindDirection,WindDirectionDegrees,WindSpeedMPH,WindSpeedGustMPH,Humidity,HourlyPrecipIn,Conditions,Clouds,dailyrainin,SoftwareType,DateUTC
2013-04-26 00:03:00,49.9,46.0,30.09,NNW,340,3.0,-999.0,87,-99.99,,,0.00,weatherlink.com 1.10,2013-04-26 07:03:00,
2013-04-26 00:18:00,49.9,46.0,30.09,NE,35,0.0,-999.0,87,-99.99,,,0.00,weatherlink.com 1.10,2013-04-26 07:18:00,
2013-04-26 00:33:00,49.8,46.0,30.09,North,5,3.0,-999.0,87,-99.99,,,0.00,weatherlink.com 1.10,2013-04-26 07:33:00,
2013-04-26 00:48:00,49.7,46.0,30.09,NNE,15,0.0,-999.0,87,-99.99,,,0.00,weatherlink.com 1.10,2013-04-26 07:48:00,
2013-04-26 01:03:00,49.6,46.0,30.09,North,355,0.0,-999.0,88,-99.99,,,0.00,weatherlink.com 1.10,2013-04-26 08:03:00,
2013-04-26 01:18:00,49.6,46.0,30.10,NNW,348,3.0,-999.0,88,-99.99,,,0.00,weatherlink.com 1.10,2013-04-26 08:18:00,
2013-04-26 01:33:00,49.5,46.0,30.09,NNW,338,5.0,-999.0,88,-99.99,,,0.00,weatherlink.com 1.10,2013-04-26 08:33:00,
2013-04-26 01:48:00,49.4,46.0,30.09,North,355,5.0,-999.0,88,-99.99,,,0.00,weatherlink.com 1.10,2013-04-26 08:48:00,
2013-04-26 02:03:00,49.3,46.0,30.09,North,11,1.0,-999.0,89,-99.99,,,0.00,weatherlink.com 1.10,2013-04-26 09:03:00,
2013-04-26 02:18:00,49.3,46.0,30.08,NNW,338,4.0,-999.0,89,-99.99,,,0.00,weatherlink.com 1.10,2013-04-26 09:18:00,
2013-04-26 02:33:00,49.2,46.0,30.08,North,355,2.0,-999.0,89,-99.99,,,0.00,weatherlink.com 1.10,2013-04-26 09:33:00,
2013-04-26 02:48:00,49.2,46.0,30.08,NNW,335,3.0,-999.0,89,-99.99,,,0.00,weatherlink.com 1.10,2013-04-26 09:48:00,
2013-04-26 03:03:00,49.1,46.0,30.07,NW,326,4.0,-999.0,89,-99.99,,,0.00,weatherlink.com 1.10,2013-04-26 10:03:00,
2013-04-26 03:18:00,48.9,46.0,30.08,NNW,327,1.0,-999.0,90,-99.99,,,0.00,weatherlink.com 1.10,2013-04-26 10:18:00,
2013-04-26 03:33:00,48.8,46.0,30.08,NNW,343,1.0,-999.0,90,-99.99,,,0.00,weatherlink.com 1.10,2013-04-26 10:33:00,
2013-04-26 03:48:00,48.8,46.0,30.08,North,355,3.0,-999.0,90,-99.99,,,0.00,weatherlink.com 1.10,2013-04-26 10:48:00,
2013-04-26 04:03:00,48.6,46.0,30.09,North,9,3.0,-999.0,90,-99.99,,,0.00,weatherlink.com 1.10,2013-04-26 11:03:00,
2013-04-26 04:18:00,48.6,46.0,30.09,NW,318,0.0,-999.0,91,-99.99,,,0.00,weatherlink.com 1.10,2013-04-26 11:18:00,
2013-04-26 04:33:00,48.5,46.0,30.09,NW,325,0.0,-999.0,91,-99.99,,,0.00,weatherlink.com 1.10,2013-04-26 11:33:00,
2013-04-26 04:48:00,48.3,46.0,30.10,NW,325,6.0,-999.0,91,-99.99,,,0.00,weatherlink.com 1.10,2013-04-26 11:48:00,
2013-04-26 05:03:00,48.3,46.0,30.10,NW,324,2.0,-999.0,91,-99.99,,,0.00,weatherlink.com 1.10,2013-04-26 12:03:00,
2013-04-26 05:18:00,48.3,46.0,30.10,NNE,15,2.0,-999.0,91,-99.99,,,0.00,weatherlink.com 1.10,2013-04-26 12:18:00,
2013-04-26 05:33:00,48.2,46.0,30.10,NW,324,1.0,-999.0,91,-99.99,,,0.00,weatherlink.com 1.10,2013-04-26 12:33:00,
2013-04-26 05:48:00,48.2,46.0,30.11,North,355,4.0,-999.0,91,-99.99,,,0.00,weatherlink.com 1.10,2013-04-26 12:48:00,
2013-04-26 06:03:00,48.1,46.0,30.11,North,351,2.0,-999.0,91,-99.99,,,0.00,weatherlink.com 1.10,2013-04-26 13:03:00,
2013-04-26 06:18:00,48.1,46.0,30.11,NW,325,5.0,-999.0,92,-99.99,,,0.00,weatherlink.com 1.10,2013-04-26 13:18:00,
2013-04-26 06:33:00,48.0,46.0,30.12,NW,309,3.0,-999.0,91,-99.99,,,0.00,weatherlink.com 1.10,2013-04-26 13:33:00,
2013-04-26 06:48:00,48.0,46.0,30.12,North,360,3.0,-999.0,92,-99.99,,,0.00,weatherlink.com 1.10,2013-04-26 13:48:00,
2013-04-26 07:03:00,48.0,46.0,30.12,NW,313,3.0,-999.0,92,-99.99,,,0.00,weatherlink.com 1.10,2013-04-26 14:03:00,
2013-04-26 07:18:00,48.0,46.0,30.13,NNW,338,1.0,-999.0,92,-99.99,,,0.00,weatherlink.com 1.10,2013-04-26 14:18:00,
2013-04-26 07:33:00,48.0,46.0,30.13,NNW,338,2.0,-999.0,92,-99.99,,,0.00,weatherlink.com 1.10,2013-04-26 14:33:00,
2013-04-26 07:48:00,48.1,46.0,30.14,NW,319,2.0,-999.0,92,-99.99,,,0.00,weatherlink.com 1.10,2013-04-26 14:48:00,
2013-04-26 08:03:00,48.0,46.0,30.15,NNW,342,0.0,-999.0,92,-99.99,,,0.00,weatherlink.com 1.10,2013-04-26 15:03:00,
2013-04-26 08:19:00,48.2,46.0,30.16,NW,313,0.0,-999.0,92,-99.99,,,0.00,weatherlink.com 1.10,2013-04-26 15:19:00,
2013-04-26 08:34:00,48.1,46.0,30.16,NW,306,3.0,-999.0,92,-99.99,,,0.00,weatherlink.com 1.10,2013-04-26 15:34:00,
2013-04-26 08:49:00,48.3,46.0,30.16,NW,313,0.0,-999.0,92,-99.99,,,0.00,weatherlink.com 1.10,2013-04-26 15:49:00,
2013-04-26 09:04:00,48.5,46.0,30.16,WSW,250,1.0,-999.0,92,-99.99,,,0.00,weatherlink.com 1.10,2013-04-26 16:04:00,
2013-04-26 09:19:00,48.5,46.0,30.17,WSW,251,2.0,-999.0,92,-99.99,,,0.00,weatherlink.com 1.10,2013-04-26 16:19:00,
2013-04-26 09:33:00,48.8,47.0,30.17,WSW,250,1.0,-999.0,92,-99.99,,,0.00,weatherlink.com 1.10,2013-04-26 16:33:00,
2013-04-26 09:49:00,49.3,47.0,30.17,SW,231,3.0,-999.0,91,-99.99,,,0.00,weatherlink.com 1.10,2013-04-26 16:49:00,
2013-04-26 10:04:00,49.7,47.0,30.17,SW,234,1.0,-999.0,91,-99.99,,,0.00,weatherlink.com 1.10,2013-04-26 17:04:00,
2013-04-26 10:20:00,49.7,47.0,30.18,WSW,257,4.0,-999.0,90,-99.99,,,0.00,weatherlink.com 1.10,2013-04-26 17:20:00,
2013-04-26 10:33:00,49.3,47.0,30.18,West,279,3.0,-999.0,90,-99.99,,,0.00,weatherlink.com 1.10,2013-04-26 17:33:00,
2013-04-26 10:48:00,49.4,47.0,30.18,West,264,3.0,-999.0,91,-99.99,,,0.00,weatherlink.com 1.10,2013-04-26 17:48:00,
2013-04-26 11:04:00,49.9,47.0,30.19,WSW,240,1.0,-999.0,90,-99.99,,,0.00,weatherlink.com 1.10,2013-04-26 18:04:00,
2013-04-26 11:19:00,49.9,47.0,30.19,SW,231,3.0,-999.0,89,-99.99,,,0.00,weatherlink.com 1.10,2013-04-26 18:19:00,
2013-04-26 11:34:00,50.5,47.0,30.19,West,268,0.0,-999.0,89,-99.99,,,0.00,weatherlink.com 1.10,2013-04-26 18:34:00,
2013-04-26 11:49:00,50.4,48.0,30.20,West,275,1.0,-999.0,92,-99.99,,,0.00,weatherlink.com 1.10,2013-04-26 18:49:00,
2013-04-26 12:04:00,51.0,48.0,30.20,WSW,237,3.0,-999.0,89,-99.99,,,0.00,weatherlink.com 1.10,2013-04-26 19:04:00,
2013-04-26 12:19:00,50.9,47.0,30.20,WSW,248,2.0,-999.0,87,-99.99,,,0.00,weatherlink.com 1.10,2013-04-26 19:19:00,
2013-04-26 12:33:00,50.9,48.0,30.20,WSW,257,2.0,-999.0,88,-99.99,,,0.00,weatherlink.com 1.10,2013-04-26 19:33:00,
2013-04-26 12:49:00,51.2,48.0,30.20,WSW,244,3.0,-999.0,88,-99.99,,,0.00,weatherlink.com 1.10,2013-04-26 19:49:00,
2013-04-26 13:04:00,51.3,48.0,30.20,West,266,2.0,-999.0,88,-99.99,,,0.00,weatherlink.com 1.10,2013-04-26 20:04:00,
2013-04-26 13:19:00,51.3,48.0,30.20,West,265,4.0,-999.0,87,-99.99,,,0.00,weatherlink.com 1.10,2013-04-26 20:19:00,
2013-04-26 13:34:00,51.7,48.0,30.20,WNW,290,4.0,-999.0,88,-99.99,,,0.00,weatherlink.com 1.10,2013-04-26 20:34:00,
2013-04-26 13:49:00,52.1,48.0,30.20,NW,321,4.0,-999.0,86,-99.99,,,0.00,weatherlink.com 1.10,2013-04-26 20:49:00,
2013-04-26 14:03:00,51.3,48.0,30.20,WNW,292,4.0,-999.0,88,-99.99,,,0.00,weatherlink.com 1.10,2013-04-26 21:03:00,
2013-04-26 14:19:00,51.0,48.0,30.20,NW,306,6.0,-999.0,88,-99.99,,,0.00,weatherlink.com 1.10,2013-04-26 21:19:00,
2013-04-26 14:34:00,51.7,48.0,30.20,WNW,296,7.0,-999.0,87,-99.99,,,0.00,weatherlink.com 1.10,2013-04-26 21:34:00,
2013-04-26 14:49:00,51.2,48.0,30.20,NNW,345,5.0,-999.0,88,-99.99,,,0.00,weatherlink.com 1.10,2013-04-26 21:49:00,
2013-04-26 15:04:00,51.5,48.0,30.20,NNW,342,8.0,-999.0,89,-99.99,,,0.00,weatherlink.com 1.10,2013-04-26 22:04:00,
2013-04-26 15:19:00,50.9,48.0,30.19,NW,310,11.0,-999.0,88,-99.99,,,0.00,weatherlink.com 1.10,2013-04-26 22:19:00,
2013-04-26 15:34:00,50.8,48.0,30.19,WNW,295,11.0,-999.0,89,-99.99,,,0.00,weatherlink.com 1.10,2013-04-26 22:34:00,
2013-04-26 15:48:00,50.5,47.0,30.19,NW,313,8.0,-999.0,89,-99.99,,,0.00,weatherlink.com 1.10,2013-04-26 22:48:00,
2013-04-26 16:03:00,50.3,48.0,30.19,NNW,336,8.0,-999.0,90,-99.99,,,0.00,weatherlink.com 1.10,2013-04-26 23:03:00,
2013-04-26 16:19:00,50.7,48.0,30.18,North,350,8.0,-999.0,90,-99.99,,,0.00,weatherlink.com 1.10,2013-04-26 23:19:00,
2013-04-26 16:34:00,50.7,48.0,30.18,NW,325,10.0,-999.0,90,-99.99,,,0.00,weatherlink.com 1.10,2013-04-26 23:34:00,
2013-04-26 16:49:00,50.5,48.0,30.18,North,10,7.0,-999.0,90,-99.99,,,0.00,weatherlink.com 1.10,2013-04-26 23:49:00,
2013-04-26 17:19:00,50.1,48.0,30.18,NW,304,7.0,-999.0,91,-99.99,,,0.00,weatherlink.com 1.10,2013-04-27 00:19:00,
2013-04-26 17:33:00,50.3,48.0,30.18,NNW,345,6.0,-999.0,91,-99.99,,,0.00,weatherlink.com 1.10,2013-04-27 00:33:00,
2013-04-26 17:49:00,50.1,47.0,30.18,NW,320,7.0,-999.0,90,-99.99,,,0.00,weatherlink.com 1.10,2013-04-27 00:49:00,
2013-04-26 18:04:00,50.0,47.0,30.18,NNW,344,11.0,-999.0,90,-99.99,,,0.00,weatherlink.com 1.10,2013-04-27 01:04:00,
2013-04-26 18:19:00,49.9,47.0,30.17,North,351,9.0,-999.0,90,-99.99,,,0.00,weatherlink.com 1.10,2013-04-27 01:19:00,
2013-04-26 18:34:00,49.7,47.0,30.17,NNW,333,9.0,-999.0,90,-99.99,,,0.00,weatherlink.com 1.10,2013-04-27 01:34:00,
2013-04-26 18:49:00,49.5,47.0,30.16,NW,321,6.0,-999.0,90,-99.99,,,0.00,weatherlink.com 1.10,2013-04-27 01:49:00,
2013-04-26 19:04:00,49.4,47.0,30.16,NNW,337,8.0,-999.0,90,-99.99,,,0.00,weatherlink.com 1.10,2013-04-27 02:04:00,
2013-04-26 19:18:00,49.1,46.0,30.16,NW,315,3.0,-999.0,90,-99.99,,,0.00,weatherlink.com 1.10,2013-04-27 02:18:00,
2013-04-26 19:33:00,48.9,46.0,30.16,NW,323,8.0,-999.0,90,-99.99,,,0.00,weatherlink.com 1.10,2013-04-27 02:33:00,
2013-04-26 19:50:00,48.6,46.0,30.17,NNE,13,3.0,-999.0,91,-99.99,,,0.00,weatherlink.com 1.10,2013-04-27 02:50:00,
2013-04-26 20:04:00,48.3,46.0,30.17,NNW,338,7.0,-999.0,91,-99.99,,,0.00,weatherlink.com 1.10,2013-04-27 03:04:00,
2013-04-26 20:19:00,48.1,46.0,30.17,NNE,29,6.0,-999.0,91,-99.99,,,0.00,weatherlink.com 1.10,2013-04-27 03:19:00,
2013-04-26 20:34:00,48.0,46.0,30.17,NNW,327,12.0,-999.0,91,-99.99,,,0.00,weatherlink.com 1.10,2013-04-27 03:34:00,
2013-04-26 20:50:00,47.9,46.0,30.17,NW,309,7.0,-999.0,92,-99.99,,,0.00,weatherlink.com 1.10,2013-04-27 03:50:00,
2013-04-26 21:04:00,47.9,46.0,30.17,North,360,4.0,-999.0,92,-99.99,,,0.00,weatherlink.com 1.10,2013-04-27 04:04:00,
2013-04-26 21:18:00,47.8,46.0,30.17,NW,306,7.0,-999.0,92,-99.99,,,0.00,weatherlink.com 1.10,2013-04-27 04:18:00,
2013-04-26 21:34:00,47.8,46.0,30.17,NNW,338,5.0,-999.0,92,-99.99,,,0.00,weatherlink.com 1.10,2013-04-27 04:34:00,
2013-04-26 21:49:00,47.8,46.0,30.18,North,5,1.0,-999.0,92,-99.99,,,0.00,weatherlink.com 1.10,2013-04-27 04:49:00,
2013-04-26 22:03:00,47.9,46.0,30.18,North,10,6.0,-999.0,93,-99.99,,,0.00,weatherlink.com 1.10,2013-04-27 05:03:00,
2013-04-26 22:19:00,47.8,46.0,30.18,NNW,341,8.0,-999.0,93,-99.99,,,0.00,weatherlink.com 1.10,2013-04-27 05:19:00,
2013-04-26 22:34:00,47.7,46.0,30.18,North,355,3.0,-999.0,93,-99.99,,,0.00,weatherlink.com 1.10,2013-04-27 05:34:00,
2013-04-26 22:49:00,47.7,46.0,30.18,NNE,15,2.0,-999.0,93,-99.99,,,0.00,weatherlink.com 1.10,2013-04-27 05:49:00,
2013-04-26 23:04:00,47.6,46.0,30.18,North,11,4.0,-999.0,93,-99.99,,,0.00,weatherlink.com 1.10,2013-04-27 06:04:00,
2013-04-26 23:19:00,47.6,46.0,30.18,NW,325,7.0,-999.0,93,-99.99,,,0.00,weatherlink.com 1.10,2013-04-27 06:19:00,
2013-04-26 23:34:00,47.5,46.0,30.18,NNW,339,7.0,-999.0,93,-99.99,,,0.00,weatherlink.com 1.10,2013-04-27 06:34:00,
2013-04-26 23:48:00,47.5,46.0,30.18,NW,323,7.0,-999.0,93,-99.99,,,0.00,weatherlink.com 1.10,2013-04-27 06:48:00,